Wind_Speed
13 12 11 12 11 10 12 14 16 17 19 20 21 21 21 22 21 23 26 25 28 34 33 30 26 22 22 19 15 17 16 11 11 15 19 20 23 25 26 27 28 29 29 30 31 32 34 35 35 36 37 38 39 40 42 44 45 46 46 47 47 47 45 44 42 41 39 36 34 33 33 34 34 34 34 33 32 32 31 31 31 31 32 31 31 31
13 12 12 13 12 12 13 15 17 18 20 21 23 24 22 21 23 25 23 26 32 36 35 30 24 21 18 15 13 13 11 10 12 17 21 21 23 25 27 27 28 30 30 31 31 32 34 35 36 37 37 38 39 40 42 44 45 46 46 46 47 47 46 44 43 41 39 37 35 34 34 34 33 34 33 31 31 30 30 29 29 30 31 30 30 29
12 12 13 14 13 12 13 15 18 19 21 21 23 24 21 20 24 25 23 27 32 35 35 28 24 22 13 11 14 10 8 10 13 20 23 23 24 25 27 29 30 31 31 32 32 33 35 36 37 37 37 38 39 40 42 43 44 45 46 47 47 47 46 44 43 42 40 38 36 35 35 35 34 34 33 31 30 29 29 28 28 29 30 30 28 28
11 12 14 13 12 12 14 16 18 20 21 21 22 21 19 20 24 25 27 30 30 32 30 25 28 24 10 13 15 8 11 13 13 22 25 25 27 27 28 30 31 32 32 33 34 34 36 37 37 38 38 39 39 40 41 43 44 44 45 46 47 47 46 45 43 42 41 38 37 36 35 36 35 34 33 32 30 28 27 27 27 27 28 29 28 27
11 12 13 12 11 11 13 15 17 20 20 20 20 19 20 22 23 26 30 31 30 26 20 23 28 19 12 18 14 8 13 14 15 24 28 27 29 29 30 30 31 33 34 35 35 35 36 37 38 38 38 39 39 40 41 42 43 44 45 46 47 47 47 46 44 43 41 39 38 37 36 36 36 35 34 33 31 29 27 26 26 26 26 27 27 26
11 13 13 11 11 12 13 14 17 20 21 20 18 18 21 23 23 26 28 29 27 20 17 22 17 12 19 20 10 10 15 14 18 26 29 30 30 31 31 31 32 33 35 36 37 37 38 38 39 39 39 39 39 40 41 42 43 43 44 45 47 47 47 46 45 43 42 40 38 37 36 36 36 35 35 34 33 31 29 27 26 25 25 26 26 25
12 13 13 11 11 12 12 14 17 19 22 21 18 20 21 21 24 26 26 24 20 16 19 19 7 10 25 21 9 13 16 16 21 27 31 31 31 33 33 33 34 34 36 37 38 39 39 40 40 40 40 40 40 40 41 42 42 43 44 45 46 47 47 46 46 44 42 41 39 37 36 36 36 35 35 34 33 32 30 28 27 26 25 24 25 24
14 13 13 12 12 13 12 13 18 20 21 20 20 21 20 22 25 24 22 18 17 18 18 15 6 10 21 19 13 15 17 19 25 28 30 31 33 35 35 36 36 36 38 39 39 40 40 41 41 41 41 41 41 40 41 41 42 43 43 44 45 46 47 47 46 45 43 42 40 38 36 35 36 36 35 35 34 33 32 30 28 27 26 25 24 24
14 14 14 12 12 13 12 14 18 21 20 19 20 20 21 24 24 20 16 14 16 17 11 9 7 7 16 16 14 17 19 23 28 29 29 32 34 35 37 37 37 38 39 40 41 42 42 42 42 43 43 42 41 41 41 41 41 42 43 44 45 45 46 47 46 45 43 43 42 40 37 36 36 36 36 35 34 34 33 31 30 28 27 26 25 24
14 14 14 12 12 13 13 14 19 21 20 19 18 19 22 24 21 16 13 11 14 12 5 5 5 5 12 13 12 16 20 24 29 29 29 33 35 36 38 38 39 40 41 42 43 43 43 43 43 44 44 43 42 42 42 42 42 42 43 44 44 45 46 46 47 46 44 43 43 41 39 37 36 36 36 36 35 34 34 32 31 30 28 27 26 25
16 15 13 12 12 14 14 15 19 21 20 19 18 20 23 22 16 12 10 9 9 6 3 3 5 6 7 10 12 15 18 24 29 30 30 33 35 38 39 39 41 42 43 44 45 45 44 44 44 45 45 44 44 43 43 42 42 43 43 44 44 45 46 46 47 47 45 43 43 42 40 38 37 36 36 36 35 35 35 34 32 31 29 28 27 27
16 14 13 12 12 15 14 15 20 21 19 19 19 21 22 16 11 8 6 4 2 3 3 4 9 9 8 9 14 13 18 25 29 31 32 34 39 42 42 41 42 43 44 45 45 46 45 45 45 45 45 45 45 44 44 43 43 43 43 44 44 44 45 47 47 47 46 44 43 42 42 40 38 37 36 36 35 35 35 35 34 32 31 29 28 28
15 14 12 11 13 15 13 15 20 19 19 18 17 19 17 9 7 4 2 2 3 5 5 7 12 12 13 15 17 13 19 26 30 33 33 36 43 46 45 44 43 43 44 45 46 47 46 45 46 46 46 46 46 46 45 44 44 44 44 44 44 44 45 47 47 47 47 45 43 42 42 41 39 38 37 36 36 36 36 36 35 34 32 31 30 29
13 14 11 11 14 13 12 17 19 18 19 17 15 16 11 3 4 3 3 2 4 7 11 15 15 10 13 21 18 15 21 27 32 33 33 38 44 46 46 46 44 44 43 44 46 46 47 46 46 46 47 47 47 47 46 46 45 45 45 45 44 44 45 46 47 47 47 46 44 42 41 41 40 38 37 37 36 36 37 36 36 35 33 32 31 30
11 10 10 12 14 13 13 17 18 19 19 14 12 13 7 2 1 3 3 1 4 12 18 18 10 7 15 20 15 18 25 27 31 32 34 40 43 45 47 46 45 45 43 44 45 46 46 46 46 46 47 47 47 47 47 47 46 46 46 45 45 44 45 46 46 46 46 46 45 43 41 41 40 39 38 37 36 37 37 37 37 37 35 33 32 32
9 10 13 16 16 14 14 16 18 20 15 11 11 10 8 6 4 6 6 6 7 10 13 11 9 15 23 17 13 22 26 25 28 32 36 41 43 45 47 46 46 45 44 44 44 45 46 46 47 47 47 47 48 47 48 47 47 48 47 46 46 45 45 45 46 46 45 46 45 43 41 40 40 40 39 37 37 37 38 38 38 37 37 36 34 33
8 12 18 20 16 13 13 16 19 19 13 11 12 10 9 10 6 6 7 7 4 3 7 8 12 23 24 13 14 24 26 26 28 32 38 43 45 48 48 47 46 45 45 43 43 44 44 45 46 47 47 47 48 48 48 48 48 48 48 48 47 46 45 45 45 45 45 45 45 43 41 39 39 40 39 38 37 37 38 38 39 38 38 38 37 36
12 17 21 19 14 13 14 17 21 20 15 13 12 10 10 9 5 5 4 3 2 1 6 11 15 24 20 10 18 27 27 29 31 35 43 47 50 50 49 49 48 48 47 45 44 43 42 43 43 45 46 47 47 48 48 48 49 49 49 49 48 48 47 46 46 45 44 45 44 43 41 39 38 39 39 39 38 38 38 38 39 39 38 38 38 38
15 17 18 16 13 14 17 20 21 19 15 14 12 11 11 7 5 5 3 2 2 1 4 10 14 22 21 14 22 29 30 34 37 40 46 51 53 52 51 51 50 50 50 48 48 46 44 44 42 42 43 44 45 46 47 49 49 49 49 49 49 49 48 48 48 46 45 45 44 43 41 39 38 38 38 38 38 38 37 37 38 39 39 39 39 39
15 13 13 17 18 18 21 20 18 18 16 15 14 13 12 9 8 8 6 4 4 2 4 6 6 15 24 22 25 31 35 39 41 44 47 50 53 53 52 53 52 51 52 51 51 50 48 46 44 42 41 41 42 43 45 48 48 49 49 49 49 49 49 50 50 49 48 46 44 43 42 40 38 37 37 38 38 37 37 36 37 38 39 39 39 40
16 13 13 20 23 22 21 20 19 21 19 17 17 15 14 12 10 11 12 12 8 3 2 1 3 20 33 27 24 31 38 41 41 44 48 51 53 54 54 55 55 54 53 52 50 50 49 47 45 44 42 41 41 41 43 45 47 48 48 48 49 48 49 50 50 51 50 48 46 43 42 41 39 37 37 37 37 37 36 35 35 37 38 40 40 40
16 15 18 24 25 23 23 24 24 23 20 18 18 16 16 15 12 8 7 12 12 9 7 2 5 31 40 28 24 33 40 41 41 44 52 55 55 56 57 57 57 56 56 53 50 49 48 47 46 45 44 43 44 44 44 44 45 46 47 48 48 48 49 49 50 51 51 50 48 45 42 41 39 38 37 37 36 36 35 35 35 35 37 39 39 40
16 17 22 25 24 23 24 24 21 18 17 16 17 18 18 18 17 12 6 10 11 12 16 6 6 33 41 27 26 38 41 40 41 45 54 58 57 60 60 60 59 58 57 54 52 51 50 49 48 47 47 46 47 48 47 46 46 46 46 47 48 49 49 49 50 50 50 50 49 47 44 42 40 38 37 37 36 35 35 35 34 35 35 37 38 39
16 16 21 26 27 24 22 18 14 12 13 16 19 21 20 21 22 19 17 18 14 15 20 6 6 31 40 29 32 42 41 38 42 48 56 58 60 62 62 62 61 59 58 55 52 52 52 51 51 50 49 48 48 49 48 48 47 46 45 45 47 49 49 50 50 50 49 49 49 48 45 42 40 38 37 36 36 35 35 35 34 34 34 35 36 38
16 16 19 22 20 17 14 12 12 14 17 22 26 26 25 25 24 21 23 22 16 20 22 7 11 36 41 35 39 43 38 39 46 51 56 58 61 63 62 62 61 58 57 54 53 54 53 53 53 52 52 50 50 50 49 49 49 48 46 44 45 47 49 50 50 50 50 49 49 49 47 43 41 39 37 36 35 35 34 34 34 34 34 34 34 35
19 20 21 17 10 8 11 13 18 23 26 29 30 29 30 30 27 25 23 18 16 21 21 17 26 45 46 41 44 41 35 43 53 55 58 60 62 63 61 60 58 56 55 54 54 55 54 54 53 53 53 53 52 51 49 49 49 50 50 48 46 46 48 50 50 50 49 48 48 49 48 45 42 40 37 35 35 34 34 34 34 34 33 33 33 34
21 23 24 22 20 21 23 26 28 30 30 31 33 32 31 31 30 28 24 24 26 26 27 32 39 48 49 48 46 40 39 49 57 59 61 63 64 63 60 58 57 55 55 54 54 54 54 53 52 52 52 52 52 51 50 49 48 48 50 50 49 47 48 49 49 49 49 47 47 48 47 46 44 41 37 35 35 34 33 34 34 33 33 33 33 33
22 26 25 26 29 29 29 31 30 30 32 34 33 29 27 26 27 29 28 32 33 26 28 38 39 40 49 51 43 38 45 55 60 62 63 64 64 62 60 58 58 57 57 57 56 55 55 54 54 54 53 52 52 51 50 50 49 48 48 49 49 48 48 48 49 49 48 46 45 46 46 46 45 42 37 35 35 34 33 33 33 33 32 32 32 32
23 26 28 29 31 30 30 30 30 29 30 30 27 26 27 26 26 29 28 31 33 29 30 39 39 40 48 48 39 39 47 56 61 62 63 63 61 59 59 59 60 60 60 59 59 58 58 58 57 57 55 54 53 52 51 51 50 49 48 48 48 47 47 47 48 49 47 45 43 44 46 46 45 42 37 35 34 34 33 33 33 32 32 31 31 31
22 25 29 30 31 32 29 28 29 27 25 28 29 27 25 21 20 22 21 22 27 30 33 39 41 44 46 41 37 43 51 57 61 61 63 63 59 57 58 60 61 61 61 61 61 61 61 60 59 57 55 54 53 52 52 52 51 51 50 49 48 46 45 45 48 48 46 43 42 43 44 45 45 42 38 35 34 34 34 33 32 32 31 30 30 30
22 25 28 28 32 33 27 27 28 25 27 33 29 20 16 15 15 16 18 22 26 31 37 38 41 47 45 37 39 49 55 59 60 60 63 63 59 57 58 60 62 62 62 63 63 63 62 60 59 57 56 55 53 52 52 52 52 52 51 50 49 47 45 45 47 47 44 42 41 41 43 44 44 42 39 35 34 34 34 34 32 31 31 30 29 29
25 26 27 26 29 31 28 27 27 28 33 30 18 13 16 17 17 18 20 25 30 35 40 39 42 46 41 38 48 58 60 59 58 59 61 60 59 58 58 60 60 60 62 63 62 62 61 60 59 58 57 56 55 54 54 53 53 52 51 51 51 49 47 47 47 46 44 41 40 40 41 42 43 42 39 35 34 34 34 34 33 31 31 30 29 29
25 25 25 23 23 28 30 26 28 34 28 13 7 16 20 18 21 23 23 27 31 36 39 40 42 41 38 46 59 64 63 62 60 59 58 57 58 60 61 60 60 60 61 61 60 59 59 59 59 58 57 57 56 56 55 55 54 53 52 51 51 50 49 49 49 47 44 41 39 39 40 42 42 41 38 35 33 33 34 33 32 32 31 31 29 28
22 22 23 20 18 25 30 29 29 24 10 4 15 23 19 19 26 30 30 31 33 36 39 41 38 35 41 54 61 61 62 62 59 59 58 56 56 59 61 61 60 60 59 57 57 57 57 59 59 59 58 58 57 57 57 56 55 54 54 52 51 50 49 50 50 48 44 40 38 38 39 41 42 40 38 35 33 33 33 33 32 32 32 31 30 28
19 19 20 19 19 25 29 25 16 7 7 17 24 19 16 22 30 36 38 35 33 38 41 36 32 36 49 58 57 57 60 60 60 60 58 56 56 57 58 59 59 59 57 56 56 57 58 60 60 60 60 59 59 59 58 58 56 55 54 52 51 50 49 49 50 48 44 40 37 37 38 40 40 39 37 35 33 32 32 32 32 32 31 31 30 28
17 17 18 19 19 20 19 12 6 12 22 22 13 13 20 27 34 41 43 40 37 35 30 28 35 47 56 57 55 56 59 61 65 64 59 57 58 58 59 60 58 56 55 55 56 57 58 59 60 60 60 59 59 59 58 58 57 56 54 51 49 49 48 48 49 47 44 39 37 37 38 38 38 37 35 34 33 32 31 31 31 31 31 31 29 28
16 17 18 17 15 14 14 14 17 24 21 9 7 19 27 32 38 41 46 48 38 23 21 34 49 57 58 57 57 57 58 64 69 68 61 58 59 60 60 59 55 54 54 54 55 56 57 58 59 60 61 60 60 59 59 59 58 57 54 50 48 48 47 47 48 46 42 39 37 38 37 36 36 35 34 33 32 31 31 31 31 31 31 30 28 27
17 19 18 15 13 13 15 16 16 14 6 2 12 26 32 37 41 42 47 45 28 19 34 52 58 58 58 58 58 58 59 64 70 70 65 61 62 64 63 60 56 54 54 55 57 58 59 60 61 62 63 63 61 60 59 59 59 58 56 50 46 45 46 47 46 44 41 39 40 39 36 34 34 34 33 32 31 31 30 30 30 31 31 30 28 26
19 20 18 16 15 16 15 10 6 5 5 9 20 32 37 41 45 44 41 32 27 38 54 58 56 57 57 56 56 58 59 62 67 70 67 66 67 68 66 63 59 57 57 59 59 60 61 63 64 64 65 64 63 61 60 60 60 59 57 52 47 45 45 46 45 43 41 42 43 40 35 32 33 34 33 31 30 30 30 29 29 30 30 29 27 26
21 20 18 16 16 17 16 12 10 12 14 17 26 36 41 43 46 39 27 29 46 60 60 56 57 56 53 54 56 57 56 58 63 67 67 66 68 67 65 62 59 58 60 61 61 62 63 64 65 66 67 67 65 63 61 61 60 59 57 53 48 45 45 46 46 45 44 44 43 39 33 30 31 33 33 31 30 29 29 29 29 29 29 28 27 25
21 18 17 16 16 16 14 15 18 18 15 18 30 39 41 43 43 33 28 42 59 62 59 58 58 54 52 55 56 57 58 59 62 65 65 65 67 66 63 61 60 61 62 63 63 64 65 66 67 68 68 68 67 65 63 62 61 60 58 54 49 45 44 45 46 46 45 45 43 38 31 29 30 32 32 31 30 29 28 28 28 28 27 27 26 24
17 16 15 15 15 15 15 18 18 14 13 22 36 41 40 40 39 38 45 55 56 56 59 59 54 52 54 55 56 59 62 63 64 66 66 66 65 64 64 63 63 63 65 65 66 67 68 69 70 69 70 69 68 67 65 63 61 60 57 53 48 45 45 45 47 47 45 45 43 37 30 28 29 31 30 30 30 28 27 27 27 26 26 26 25 23
15 14 12 14 16 15 14 13 10 12 21 32 40 42 41 41 42 47 54 58 57 56 57 55 54 55 55 56 60 63 64 65 66 66 66 66 65 65 65 65 65 66 67 69 70 70 71 72 72 71 70 69 68 68 66 64 62 60 57 52 47 45 45 45 47 47 46 45 43 36 29 27 29 29 29 29 29 28 27 27 26 25 25 24 24 23
12 12 12 15 16 14 14 13 13 21 31 35 38 42 45 45 47 49 53 57 59 57 53 54 58 58 57 60 62 63 63 64 65 65 67 67 67 66 66 66 67 68 70 72 74 74 74 74 74 72 70 69 68 68 67 64 62 59 56 50 45 44 45 45 47 47 46 46 43 35 29 27 28 27 27 28 28 28 27 26 25 24 24 24 23 22
11 11 12 14 15 16 18 21 24 31 35 36 38 44 48 50 52 52 52 54 56 55 53 55 58 59 59 60 60 61 63 64 65 66 68 68 68 68 68 69 70 72 74 76 76 75 76 76 76 75 72 69 69 68 66 63 60 57 54 49 44 43 43 45 47 47 46 45 42 35 29 27 26 26 26 27 27 27 26 26 24 23 23 22 22 21
10 10 12 15 18 22 23 24 28 34 38 39 41 45 49 53 56 56 56 57 57 55 53 53 54 57 58 57 58 60 62 63 65 67 68 69 71 71 70 70 72 75 77 76 76 77 79 79 78 77 74 70 68 66 64 60 57 55 52 47 43 42 42 44 46 46 45 44 41 35 30 26 24 25 25 26 27 26 26 25 23 22 22 22 21 20
10 12 15 19 23 27 29 30 34 40 43 44 48 52 56 59 59 58 57 56 55 53 52 51 53 55 57 58 59 60 62 64 67 68 69 70 71 70 70 71 74 76 75 76 79 81 81 81 80 77 74 71 67 64 62 59 55 53 51 47 44 42 42 43 44 44 44 42 39 35 30 25 23 23 23 25 26 26 25 24 22 21 21 21 20 20
15 17 22 26 28 31 34 37 41 45 47 49 53 58 61 63 63 60 56 53 53 53 52 53 54 56 58 60 62 63 65 66 66 67 69 70 70 71 72 73 74 74 75 79 82 82 81 80 77 73 70 65 61 62 63 60 55 52 51 49 45 43 43 43 43 43 43 41 38 34 29 25 22 21 22 24 25 25 24 23 21 21 20 20 19 19
17 21 26 31 35 36 38 43 48 51 54 56 58 60 61 61 61 61 59 57 56 55 55 57 58 58 60 62 63 65 66 66 66 69 72 73 73 72 71 71 72 74 78 82 84 83 81 76 70 65 62 58 57 61 63 59 54 53 52 49 47 45 44 43 42 42 41 39 36 32 28 24 21 20 21 23 25 25 24 22 21 20 19 19 19 18
20 25 30 36 40 43 45 49 53 56 60 64 64 63 61 61 61 63 62 60 59 59 59 60 61 60 60 60 61 63 65 68 70 72 73 72 71 69 69 72 75 78 82 84 83 81 75 68 62 60 58 57 60 63 62 57 55 54 52 49 47 46 45 43 42 41 39 36 34 31 28 24 20 19 20 22 24 24 23 22 20 19 18 18 18 18
24 29 34 39 43 45 48 51 55 58 62 64 64 62 62 61 62 63 62 61 61 61 59 59 60 60 59 58 60 63 66 69 70 70 70 69 69 71 75 77 80 82 83 82 81 77 70 64 62 59 58 60 63 62 59 57 55 54 51 49 47 46 45 44 43 40 37 33 31 30 27 24 20 19 19 21 22 23 23 22 20 18 17 17 17 17
Wind_Direction
345 345 340 331 319 313 324 335 337 336 336 334 331 327 320 315 316 323 323 322 325 321 320 323 316 315 327 327 310 300 308 317 314 326 332 325 325 331 333 335 334 335 338 337 335 335 335 336 336 335 335 335 335 335 334 333 332 332 332 332 332 331 330 327 323 320 316 312 310 308 308 309 310 311 314 315 317 319 321 321 320 318 315 312 309 307
342 343 339 332 326 321 324 330 332 333 334 333 331 326 323 318 316 323 323 322 325 320 321 324 317 321 329 323 316 311 318 321 320 337 339 331 331 333 335 336 336 338 339 337 337 335 335 335 335 335 335 335 336 336 334 332 331 331 331 331 330 330 329 327 324 321 316 312 308 305 304 305 306 308 310 312 315 317 319 321 321 319 316 313 311 309
338 338 337 333 329 325 323 326 329 333 334 332 328 325 324 321 319 323 323 324 325 320 322 324 321 328 331 327 331 325 328 325 327 345 344 336 336 336 337 339 337 338 338 337 337 335 334 335 335 334 335 335 336 336 334 332 331 330 330 330 329 328 328 327 324 321 318 313 308 304 302 302 303 305 308 310 312 315 317 318 320 319 316 314 312 311
335 334 335 332 328 323 320 323 327 331 331 328 327 325 324 323 322 322 324 326 324 320 322 322 323 330 336 338 337 330 337 332 330 346 347 340 340 340 340 340 338 337 337 336 337 336 334 334 334 334 335 335 336 335 333 331 330 330 329 328 327 326 326 326 325 322 319 314 309 304 300 299 300 302 305 307 309 312 314 315 318 317 315 314 313 312
333 331 332 329 325 321 319 322 326 327 328 327 328 328 326 325 323 322 323 324 322 321 324 325 326 328 331 339 338 328 338 334 333 345 347 343 343 343 342 341 338 336 336 336 336 336 335 334 334 335 335 335 335 334 332 331 331 330 329 327 325 325 325 325 325 323 320 316 310 304 299 296 297 300 302 305 307 308 310 312 314 314 314 313 313 312
330 330 329 326 324 322 319 322 326 325 327 330 330 330 328 326 324 322 321 321 320 323 329 331 333 321 326 341 343 328 340 338 337 343 345 346 346 345 344 342 340 337 336 336 336 336 335 335 335 334 334 334 335 334 332 332 331 330 329 326 325 324 324 325 324 323 321 317 312 305 299 294 294 296 299 303 306 307 308 309 310 310 311 311 311 311
328 327 326 323 322 323 319 322 328 327 330 333 332 331 329 325 324 321 319 318 316 319 323 325 322 301 324 346 355 335 346 344 340 343 344 348 348 346 345 344 342 340 338 337 337 337 336 335 334 334 334 334 334 334 332 332 331 330 329 327 325 324 324 324 323 323 321 319 315 308 301 295 292 292 294 298 302 304 304 305 305 305 306 307 308 309
327 324 323 318 317 322 317 321 329 332 333 332 331 331 329 326 323 317 316 314 307 313 317 316 307 286 312 341 354 342 350 347 343 346 346 349 348 346 345 344 343 341 339 338 337 337 336 335 334 333 334 334 334 333 332 332 331 330 329 327 326 325 324 323 322 322 322 320 317 312 306 298 293 290 290 293 297 299 300 299 300 300 301 302 303 305
325 321 320 312 314 320 315 320 331 335 333 330 330 330 328 327 323 316 315 311 307 316 315 307 324 294 299 330 355 346 348 348 346 348 350 351 349 347 346 345 343 341 340 339 338 339 338 336 335 334 334 334 333 332 331 331 331 331 330 329 328 326 324 323 322 322 322 320 318 315 310 303 296 291 289 289 291 294 296 295 295 295 296 297 298 300
322 319 317 308 312 319 317 322 330 334 332 329 328 328 330 329 324 318 314 309 307 309 288 288 331 326 307 328 356 348 347 348 346 349 351 352 352 349 347 346 344 342 340 339 339 340 339 337 336 334 334 334 332 331 331 331 331 331 331 330 330 328 325 323 322 322 322 320 319 317 313 307 299 292 289 287 287 289 291 292 291 290 291 292 293 295
320 316 311 305 311 318 319 323 330 333 330 327 329 332 335 332 322 310 300 306 311 298 249 273 326 334 313 329 347 346 349 349 347 347 348 351 352 351 349 346 344 342 341 339 339 339 339 337 336 334 334 334 332 331 331 331 331 331 331 330 331 329 325 324 323 322 322 321 320 318 315 310 303 295 290 287 285 285 286 287 288 287 287 287 288 290
319 315 308 305 313 318 319 323 329 331 329 329 333 338 338 332 321 305 287 314 321 278 262 266 315 313 270 309 339 344 349 351 349 347 345 348 351 350 349 347 345 343 341 339 338 338 338 337 335 334 334 333 332 332 331 330 330 330 331 331 332 331 327 325 324 323 322 321 320 317 315 312 306 299 293 287 284 282 282 283 284 284 284 283 284 285
317 316 309 304 315 318 316 324 330 329 328 329 332 341 345 339 340 330 273 310 255 261 271 276 307 296 272 313 339 342 346 350 350 347 344 346 349 348 348 347 346 344 342 339 338 338 338 337 335 333 333 333 332 332 331 330 330 329 330 330 331 331 328 326 325 324 322 321 319 317 315 312 308 302 296 290 285 282 280 280 280 281 281 281 281 282
320 321 316 310 317 316 312 323 328 325 326 324 329 350 3 21 12 325 279 310 277 280 287 290 300 286 296 329 343 344 347 348 347 346 344 345 347 347 347 346 345 344 342 340 338 338 338 336 335 333 333 332 332 331 330 330 329 328 329 329 331 331 329 327 326 324 323 321 319 317 314 312 309 305 299 293 287 282 279 277 277 278 279 279 279 280
314 313 318 319 317 309 306 318 324 323 323 318 327 351 3 3 306 256 271 271 281 297 294 289 285 277 314 334 347 352 350 345 343 345 346 348 347 346 346 345 343 342 341 339 337 337 336 335 334 333 332 332 331 330 329 329 327 326 327 328 329 330 328 327 326 325 323 320 318 316 314 311 309 307 302 297 291 284 279 276 275 275 276 276 277 278
299 300 316 319 315 304 300 310 320 323 319 311 321 335 338 327 264 235 268 270 279 305 297 276 261 293 318 336 351 351 349 343 344 347 348 349 348 346 345 342 341 340 338 337 335 334 335 334 333 331 330 330 330 329 328 327 326 325 325 326 326 327 326 325 325 324 322 319 317 316 314 311 309 307 304 300 294 287 281 277 274 273 273 273 274 275
288 301 315 317 314 300 296 307 317 320 310 300 310 317 327 329 289 248 272 282 288 307 290 272 274 300 319 343 349 347 346 342 346 348 347 348 347 344 342 341 339 337 335 333 331 330 330 331 331 330 328 327 326 326 326 326 324 324 324 324 324 324 323 322 322 322 320 317 316 315 313 311 308 307 305 301 296 290 283 278 275 273 271 272 272 272
294 304 313 317 312 301 302 309 313 314 305 293 294 305 323 329 303 269 276 319 7 250 275 272 279 299 308 327 344 345 345 342 343 345 345 346 346 344 342 341 340 338 335 332 328 326 324 324 326 327 327 326 324 323 324 324 323 322 323 323 323 323 321 319 319 319 317 316 315 314 312 311 308 306 304 301 297 292 287 281 276 273 271 271 271 271
304 307 313 317 311 305 308 308 309 312 304 290 284 296 311 307 276 271 275 312 312 279 281 271 278 293 292 307 341 345 344 341 339 339 340 341 342 342 342 342 341 339 337 334 331 327 323 320 318 319 321 322 322 322 323 323 322 321 322 322 322 322 320 319 317 316 315 314 313 312 311 310 307 305 303 301 298 293 289 285 279 274 271 270 270 270
307 302 304 313 311 308 309 306 306 307 303 291 283 287 297 287 267 268 261 244 252 246 289 291 280 286 294 313 337 341 342 340 336 334 335 336 337 339 340 339 339 338 336 334 332 330 327 323 318 315 315 316 319 321 321 321 320 321 321 321 321 321 320 319 317 314 313 312 312 311 310 309 307 304 302 300 298 295 291 287 282 277 273 270 269 269
305 291 289 304 309 308 307 306 303 302 299 290 282 283 286 281 272 276 271 257 248 210 225 327 272 284 302 322 332 334 339 338 336 333 332 334 335 336 337 337 337 335 332 331 329 329 330 328 323 319 314 312 313 316 317 317 316 317 318 319 320 319 319 319 317 315 313 311 310 310 309 307 305 304 301 299 297 296 294 290 286 281 275 271 270 269
303 292 287 298 307 308 306 306 301 297 295 286 284 285 284 281 272 271 275 256 245 232 236 199 263 288 307 329 331 332 336 335 335 333 331 334 335 335 336 335 335 332 330 328 327 326 327 327 326 323 318 314 311 311 312 312 313 313 314 316 317 317 317 317 316 315 314 312 310 308 307 306 304 302 300 298 297 297 296 293 289 284 279 274 270 269
304 297 291 296 307 310 307 308 301 292 288 284 285 287 287 285 273 260 257 261 253 248 255 235 242 289 310 334 331 331 335 332 333 332 331 333 333 334 335 334 334 331 329 328 327 326 326 325 324 322 321 319 316 314 312 310 310 310 311 313 314 314 315 314 313 314 314 313 310 307 305 304 303 301 299 299 298 297 296 294 291 287 282 277 272 269
308 301 296 300 307 308 307 311 308 295 289 288 292 294 291 289 284 272 263 270 271 257 260 235 219 285 309 332 329 332 335 330 331 332 332 332 331 333 334 333 333 331 330 330 329 329 329 327 326 325 323 321 319 318 315 312 311 309 308 310 311 312 313 312 312 312 313 313 311 307 304 302 300 299 298 298 298 297 297 295 292 289 285 281 276 271
305 298 297 303 312 316 314 318 315 306 300 297 298 299 297 296 293 281 269 268 270 264 263 230 242 285 308 327 329 336 337 329 331 332 332 331 330 332 334 332 332 331 331 331 331 331 331 330 330 328 328 327 325 324 321 317 314 310 308 307 307 309 310 310 310 311 312 312 311 309 305 301 298 297 297 297 296 296 296 295 293 290 287 284 279 274
299 295 295 293 291 296 299 302 304 303 301 297 296 298 299 298 294 286 276 261 258 264 255 238 266 291 310 326 332 339 336 330 332 332 332 331 330 332 333 332 331 331 331 332 332 332 332 330 329 328 329 330 330 329 327 323 319 314 310 307 306 306 306 306 307 309 310 311 312 311 306 300 297 295 295 296 295 294 294 294 294 291 288 286 282 277
296 296 298 291 281 284 293 299 301 300 298 296 297 298 297 297 293 285 271 257 263 269 261 264 282 298 313 328 337 339 335 331 332 331 332 331 330 332 333 330 330 330 331 332 333 332 331 330 329 328 329 329 329 329 328 327 324 319 314 311 308 305 304 304 305 306 308 310 312 313 308 301 296 295 295 294 293 293 293 293 293 291 289 287 284 280
295 297 300 298 295 297 302 304 303 300 299 298 300 301 300 300 294 283 274 275 280 273 270 287 299 301 312 330 340 336 332 330 330 331 331 329 330 331 330 328 328 330 331 333 333 332 331 330 330 329 330 330 329 328 327 326 325 322 318 315 312 308 305 305 304 305 306 308 311 312 309 303 297 295 294 292 291 292 292 291 291 291 290 287 286 283
295 296 301 303 303 304 306 307 306 303 302 303 305 306 306 305 297 290 292 295 287 270 278 305 311 304 315 333 336 330 329 327 327 329 328 327 329 329 327 327 329 331 332 332 332 331 330 330 330 329 330 330 329 328 327 326 325 322 320 317 313 311 308 306 304 304 305 307 310 311 309 304 299 295 292 290 290 290 290 290 290 291 290 288 286 283
295 296 303 304 304 309 311 311 311 310 309 310 311 312 312 312 307 304 313 316 300 288 301 318 316 313 323 333 327 325 326 324 324 326 326 326 328 328 328 328 329 331 332 331 330 330 330 330 330 330 331 332 331 329 327 326 324 322 320 317 314 311 309 306 304 304 305 305 308 309 309 306 301 295 291 289 289 288 288 288 289 290 291 289 286 282
296 296 303 305 305 309 315 316 317 316 314 312 312 317 327 333 332 329 332 331 321 316 322 324 317 316 324 327 322 323 323 321 323 325 325 327 328 328 329 329 330 331 331 330 330 330 330 331 331 332 334 334 333 331 329 326 324 322 320 318 315 312 309 307 305 304 304 304 305 307 308 307 302 295 290 288 287 287 287 287 288 290 290 288 285 282
299 298 303 306 304 306 314 319 318 316 313 310 313 333 337 335 337 338 335 332 329 327 328 325 317 316 322 323 322 323 322 321 323 324 325 327 327 328 329 330 332 331 330 330 331 330 331 331 332 333 334 335 334 333 331 328 324 322 320 319 317 316 313 310 306 305 303 302 303 305 306 306 302 295 289 286 285 286 286 287 288 289 289 288 285 282
302 300 303 305 299 303 313 318 317 318 315 309 335 336 330 330 334 333 330 327 328 330 328 321 315 315 320 323 323 323 323 323 323 323 324 327 327 327 329 331 332 330 330 330 330 330 330 330 331 332 332 333 333 332 330 328 326 324 321 319 319 318 317 314 309 306 303 300 300 303 305 304 301 295 289 286 284 284 285 286 287 288 289 288 286 283
305 302 303 301 291 299 312 319 320 320 313 307 328 327 324 330 336 336 330 323 325 328 323 314 311 314 319 321 321 321 322 322 321 321 323 327 328 329 330 331 330 329 329 330 329 329 329 328 329 330 331 331 331 329 327 325 324 323 322 321 320 320 319 316 311 307 302 299 298 300 302 302 300 297 291 286 283 283 283 284 285 287 288 288 287 284
307 306 303 298 292 298 312 325 331 320 300 311 316 319 323 330 334 333 325 319 322 323 316 307 307 313 318 320 320 319 319 319 318 320 323 327 330 332 332 330 329 329 329 328 328 328 327 327 327 329 330 331 330 328 325 323 322 321 322 323 322 320 319 317 314 308 302 298 296 297 299 300 301 299 293 287 282 281 281 282 284 286 287 288 287 284
312 311 305 303 299 299 310 324 312 301 313 317 319 333 334 331 334 331 321 318 324 321 307 301 309 316 320 321 321 319 318 318 318 320 325 330 333 333 331 330 329 328 328 328 327 327 326 326 327 329 330 330 329 327 325 323 321 320 320 321 321 319 318 317 315 309 302 297 294 293 295 298 300 300 293 286 282 280 280 281 282 284 286 287 287 285
315 313 309 306 301 296 296 294 296 308 318 329 355 347 338 333 335 332 322 322 330 326 309 313 318 322 323 322 321 320 319 318 318 321 328 333 333 331 330 330 329 327 327 327 326 325 325 326 328 329 329 329 328 327 325 323 321 320 319 318 319 319 317 317 315 309 302 296 291 290 292 295 300 300 292 285 281 279 279 279 281 283 284 286 286 284
315 314 311 303 294 292 295 300 308 317 326 11 342 339 337 335 336 333 324 326 335 332 323 323 324 325 324 322 321 321 319 318 319 322 328 331 329 329 330 329 327 325 324 324 323 323 324 326 327 327 327 327 327 326 324 322 321 320 320 317 315 316 317 316 314 308 302 294 288 287 290 295 300 298 290 284 280 278 277 279 279 281 283 285 286 284
317 315 311 301 292 292 294 294 293 295 308 332 336 336 336 336 336 333 326 325 330 329 327 326 325 324 323 321 320 320 321 321 321 323 327 327 325 327 328 326 324 321 319 320 321 323 324 325 325 326 325 326 326 325 324 322 320 320 320 318 314 314 316 315 311 306 300 292 288 288 289 294 298 296 290 283 278 276 277 277 278 280 282 285 286 285
319 317 312 305 301 300 293 279 277 295 312 329 335 336 336 335 335 335 326 320 326 329 328 326 323 322 320 319 319 320 322 323 323 323 325 325 324 324 325 324 322 319 319 320 322 324 325 324 325 325 326 326 325 325 323 321 320 320 320 318 315 314 315 314 309 305 299 294 290 289 288 292 296 295 290 283 277 275 275 275 277 279 281 284 285 284
320 318 313 309 311 311 298 286 294 307 321 332 334 336 336 334 334 332 321 321 326 328 327 325 322 320 318 318 319 320 321 321 321 321 323 323 322 323 324 323 321 320 321 323 325 327 327 326 325 326 326 326 325 324 323 321 319 319 318 318 316 314 313 312 309 306 302 297 293 288 285 289 293 293 290 283 276 273 273 273 275 278 280 282 284 284
321 319 317 318 322 319 308 301 305 315 333 334 331 333 338 337 332 325 322 324 325 324 323 323 320 317 318 319 319 319 319 318 319 319 320 321 322 323 324 324 324 324 324 325 326 327 328 327 326 325 325 325 324 323 322 320 318 317 316 316 315 312 310 309 309 306 303 299 293 287 282 285 289 291 289 282 276 272 272 272 274 276 278 281 283 283
319 318 323 326 325 322 317 314 318 326 330 331 331 334 338 337 330 325 324 325 323 322 321 320 319 319 319 319 318 318 317 317 318 319 321 322 323 324 325 326 327 327 327 327 327 328 328 327 326 325 324 324 323 322 322 319 317 315 315 314 312 309 307 308 308 307 303 298 293 285 279 281 285 288 287 281 275 271 270 271 273 275 277 280 282 283
325 329 335 335 332 330 322 316 320 323 323 327 332 334 333 331 329 326 323 322 322 323 322 321 320 320 318 317 317 317 318 320 322 323 324 325 326 327 328 329 329 329 329 329 328 328 327 326 325 325 324 323 322 322 321 319 316 314 314 313 310 307 306 306 307 306 304 299 293 284 276 276 281 285 284 280 274 270 269 270 272 274 276 279 282 282
335 332 331 332 331 323 311 309 317 322 320 322 327 329 327 324 325 325 323 322 323 324 323 321 319 317 317 317 319 320 322 324 326 327 328 328 329 329 330 330 331 330 329 328 327 327 327 326 326 326 324 323 322 321 320 318 317 315 315 314 309 305 304 303 305 306 304 298 292 283 273 272 279 283 282 277 272 269 268 269 271 273 275 278 280 281
336 327 324 325 322 315 308 308 315 317 315 316 321 324 325 324 325 327 326 324 323 323 321 320 318 318 320 323 325 327 328 329 330 330 330 330 329 329 330 330 330 329 328 327 328 328 327 326 325 325 324 323 322 321 320 320 319 317 317 315 310 306 304 302 304 305 302 297 291 282 271 269 275 279 278 274 270 267 267 268 270 272 274 277 279 280
331 323 323 325 323 320 316 314 317 317 317 319 322 324 324 325 326 326 326 324 323 322 322 322 323 324 326 329 332 333 333 333 332 331 331 330 329 329 329 328 328 329 328 328 329 328 326 325 325 325 325 324 322 321 321 322 321 320 319 317 313 308 305 303 304 304 301 296 290 281 269 264 270 276 276 272 267 265 265 267 269 271 273 276 278 279
337 327 327 327 323 320 318 318 319 319 320 323 326 326 325 325 325 326 326 325 325 325 325 325 327 329 331 332 332 332 332 332 331 331 331 330 328 328 328 327 327 328 328 328 327 326 325 325 325 325 325 325 323 321 321 322 322 322 321 320 316 311 308 306 305 304 301 295 289 279 267 261 266 272 272 269 265 262 263 265 266 269 272 274 276 278
331 324 327 326 321 319 323 325 324 321 322 326 328 328 328 328 327 326 326 326 326 326 326 326 327 328 329 329 329 329 329 329 330 330 329 328 327 327 327 327 327 327 326 325 325 324 325 325 325 325 325 323 321 320 321 322 322 322 322 320 316 313 311 308 306 304 301 295 288 277 264 258 262 267 268 266 263 260 261 262 264 267 270 272 275 276
327 327 330 329 326 326 328 330 329 327 326 327 328 328 328 328 326 326 326 327 327 327 327 327 326 327 328 329 329 329 329 329 329 328 328 328 328 328 327 326 325 324 324 324 323 324 324 324 323 322 322 320 320 320 321 322 323 322 321 319 315 313 312 309 307 305 302 296 287 275 261 255 258 262 263 262 260 259 259 260 262 264 267 270 273 275
334 334 333 331 329 327 326 327 327 327 325 325 326 327 327 327 327 327 327 327 327 327 329 330 331 332 333 332 331 330 330 330 330 331 331 330 328 326 325 324 323 323 323 322 322 323 322 321 321 321 320 320 320 321 322 323 323 322 320 318 315 314 312 310 308 306 302 296 285 271 258 250 252 256 258 259 258 257 257 259 261 262 265 268 271 273
Height
3158 3156 3155 3154 3154 3153 3151 3150 3148 3147 3146 3144 3142 3141 3139 3137 3135 3135 3132 3129 3127 3123 3121 3120 3117 3114 3113 3112 3111 3109 3108 3108 3108 3107 3105 3103 3101 3099 3096 3094 3091 3088 3085 3083 3080 3077 3074 3072 3069 3066 3063 3060 3056 3053 3049 3046 3043 3039 3036 3032 3029 3027 3024 3020 3017 3014 3011 3009 3007 3005 3002 3000 2998 2995 2993 2990 2986 2984 2981 2978 2976 2974 2972 2970 2968 2966
3158 3156 3155 3154 3152 3151 3150 3149 3147 3146 3144 3143 3141 3139 3137 3135 3133 3133 3131 3128 3125 3120 3117 3117 3115 3113 3112 3110 3109 3108 3107 3107 3106 3105 3103 3101 3099 3096 3094 3091 3089 3086 3083 3081 3078 3075 3072 3069 3067 3063 3060 3057 3053 3050 3046 3043 3040 3037 3033 3029 3026 3024 3021 3017 3014 3011 3008 3005 3003 3001 2999 2997 2995 2993 2990 2988 2985 2981 2978 2976 2974 2971 2970 2968 2966 2964
3157 3156 3154 3153 3151 3150 3149 3147 3146 3145 3143 3142 3140 3138 3136 3134 3131 3130 3129 3127 3124 3118 3114 3113 3112 3110 3110 3108 3107 3106 3106 3105 3104 3103 3101 3099 3097 3095 3092 3089 3086 3083 3081 3078 3076 3073 3070 3067 3064 3060 3057 3054 3050 3047 3044 3041 3037 3034 3030 3026 3024 3021 3018 3015 3011 3007 3004 3001 2999 2997 2995 2993 2992 2989 2987 2985 2982 2979 2976 2973 2971 2969 2967 2966 2964 2962
3157 3155 3154 3152 3151 3149 3148 3146 3145 3143 3142 3141 3139 3137 3135 3133 3130 3127 3126 3124 3122 3118 3114 3111 3109 3107 3107 3106 3105 3105 3104 3103 3102 3101 3099 3097 3095 3092 3090 3087 3084 3081 3079 3076 3073 3070 3067 3064 3061 3057 3054 3050 3047 3044 3041 3038 3035 3031 3027 3024 3021 3018 3015 3011 3008 3004 3001 2998 2995 2993 2991 2989 2988 2986 2984 2982 2979 2977 2974 2971 2969 2967 2965 2963 2961 2960
3156 3155 3153 3151 3150 3149 3147 3146 3144 3143 3142 3140 3138 3135 3133 3131 3130 3126 3123 3121 3119 3118 3115 3111 3107 3105 3105 3105 3104 3104 3103 3101 3100 3099 3097 3095 3092 3090 3088 3085 3082 3079 3076 3073 3071 3068 3064 3061 3058 3054 3051 3048 3045 3042 3039 3035 3032 3028 3025 3021 3018 3015 3011 3008 3004 3000 2997 2994 2991 2989 2987 2985 2983 2982 2980 2978 2976 2973 2971 2969 2966 2964 2963 2961 2959 2957
3155 3154 3152 3151 3149 3148 3146 3145 3143 3142 3140 3138 3136 3134 3132 3130 3128 3126 3123 3120 3117 3116 3115 3113 3109 3104 3103 3104 3103 3102 3102 3100 3099 3097 3095 3093 3090 3088 3086 3083 3080 3077 3074 3071 3068 3065 3061 3058 3055 3051 3048 3045 3042 3039 3035 3032 3029 3025 3022 3018 3015 3011 3007 3004 3000 2997 2993 2990 2987 2985 2983 2981 2980 2978 2976 2973 2971 2969 2967 2965 2964 2962 2960 2958 2957 2955
3154 3152 3151 3149 3148 3147 3145 3144 3142 3140 3138 3136 3134 3132 3130 3128 3126 3124 3122 3120 3117 3115 3114 3114 3113 3107 3101 3102 3103 3101 3100 3099 3097 3096 3093 3091 3089 3086 3084 3081 3078 3075 3071 3068 3065 3062 3059 3055 3052 3049 3045 3042 3038 3035 3032 3029 3025 3022 3018 3015 3012 3008 3004 3000 2996 2993 2990 2986 2984 2981 2979 2977 2976 2974 2973 2970 2968 2966 2963 2962 2960 2959 2958 2956 2954 2953
3153 3151 3149 3148 3147 3145 3144 3143 3141 3139 3137 3134 3132 3131 3129 3127 3125 3122 3120 3119 3117 3115 3114 3112 3113 3110 3102 3100 3101 3099 3099 3097 3096 3094 3092 3089 3087 3084 3081 3078 3075 3072 3069 3066 3063 3060 3056 3052 3049 3045 3042 3038 3035 3031 3028 3025 3022 3018 3015 3012 3009 3004 3000 2996 2992 2989 2986 2982 2980 2977 2975 2973 2971 2970 2969 2967 2965 2963 2960 2959 2957 2956 2954 2953 2952 2950
3151 3150 3148 3147 3145 3144 3143 3142 3140 3137 3135 3133 3131 3129 3127 3125 3122 3120 3119 3118 3116 3114 3113 3111 3112 3111 3103 3099 3099 3098 3096 3096 3094 3092 3090 3088 3085 3082 3079 3076 3073 3070 3066 3063 3060 3057 3053 3049 3046 3042 3039 3035 3032 3028 3025 3022 3018 3015 3012 3008 3005 3001 2997 2993 2989 2985 2982 2978 2975 2973 2970 2969 2967 2965 2964 2963 2961 2959 2957 2956 2954 2952 2951 2949 2948 2947
3150 3148 3147 3145 3144 3143 3141 3140 3138 3136 3134 3132 3130 3128 3125 3123 3120 3118 3117 3116 3115 3114 3112 3111 3111 3110 3103 3098 3098 3097 3094 3094 3092 3090 3088 3086 3083 3080 3077 3074 3070 3067 3064 3060 3057 3053 3050 3046 3043 3039 3035 3032 3029 3025 3022 3018 3015 3011 3008 3005 3001 2998 2993 2989 2985 2981 2978 2974 2971 2968 2966 2964 2962 2960 2959 2958 2957 2955 2954 2952 2950 2949 2947 2946 2944 2943
3149 3147 3146 3144 3143 3141 3140 3139 3136 3134 3132 3130 3128 3126 3123 3120 3118 3117 3116 3115 3115 3112 3111 3110 3110 3111 3106 3098 3096 3096 3093 3092 3089 3087 3086 3084 3081 3078 3075 3072 3068 3064 3061 3057 3054 3050 3047 3043 3039 3036 3032 3029 3025 3022 3018 3014 3011 3007 3004 3001 2997 2994 2989 2985 2982 2978 2974 2970 2967 2964 2961 2959 2957 2955 2954 2953 2952 2951 2949 2948 2947 2945 2944 2943 2941 2939
3147 3146 3144 3143 3142 3140 3139 3137 3135 3133 3130 3128 3126 3124 3121 3119 3117 3115 3114 3115 3114 3111 3110 3110 3109 3111 3106 3097 3094 3094 3092 3090 3087 3085 3083 3080 3078 3076 3073 3069 3066 3062 3058 3055 3051 3048 3044 3041 3037 3033 3029 3026 3022 3018 3015 3011 3007 3004 3000 2996 2993 2990 2985 2981 2978 2974 2970 2966 2963 2960 2957 2955 2953 2951 2949 2948 2947 2946 2945 2944 2943 2941 2940 2939 2938 2936
3146 3144 3143 3142 3141 3139 3137 3136 3134 3131 3129 3127 3126 3124 3121 3119 3117 3115 3115 3116 3114 3110 3109 3109 3109 3108 3101 3094 3093 3093 3091 3089 3086 3083 3080 3077 3075 3072 3070 3067 3063 3060 3056 3052 3049 3045 3041 3038 3034 3030 3026 3022 3018 3015 3011 3007 3003 3000 2996 2992 2989 2985 2981 2977 2973 2970 2966 2963 2959 2956 2953 2951 2948 2946 2944 2943 2942 2941 2940 2939 2939 2937 2936 2935 2934 2933
3144 3143 3142 3141 3139 3138 3136 3134 3132 3130 3128 3127 3125 3124 3123 3122 3122 3118 3117 3116 3113 3109 3107 3107 3108 3104 3096 3092 3092 3091 3089 3087 3084 3081 3079 3076 3073 3070 3067 3064 3061 3058 3054 3050 3046 3042 3038 3035 3031 3026 3023 3019 3015 3011 3007 3003 3000 2996 2992 2989 2985 2981 2977 2973 2969 2966 2962 2959 2955 2952 2949 2946 2944 2942 2940 2938 2937 2936 2935 2935 2934 2933 2932 2931 2930 2928
3144 3141 3140 3140 3138 3136 3135 3133 3131 3129 3127 3126 3125 3124 3123 3124 3124 3121 3118 3116 3113 3110 3106 3105 3104 3099 3093 3091 3090 3089 3087 3085 3082 3080 3078 3075 3072 3068 3064 3061 3058 3055 3052 3048 3043 3039 3036 3031 3027 3023 3019 3015 3011 3007 3003 3000 2996 2992 2988 2985 2981 2977 2973 2969 2965 2962 2958 2955 2951 2948 2945 2942 2939 2937 2935 2933 2932 2931 2930 2930 2929 2928 2927 2926 2925 2924
3143 3141 3139 3138 3137 3135 3134 3132 3130 3128 3126 3124 3124 3123 3123 3123 3122 3121 3119 3116 3115 3113 3106 3101 3098 3093 3091 3089 3087 3087 3085 3083 3081 3078 3076 3073 3069 3066 3062 3059 3056 3052 3048 3045 3040 3036 3032 3028 3024 3019 3015 3011 3007 3003 3000 2996 2992 2988 2984 2981 2977 2973 2969 2965 2961 2958 2954 2951 2947 2944 2941 2938 2935 2932 2930 2929 2927 2926 2925 2925 2924 2923 2923 2922 2921 2920
3142 3139 3138 3137 3135 3134 3132 3131 3129 3127 3126 3124 3123 3122 3121 3121 3120 3119 3118 3115 3117 3114 3104 3096 3093 3089 3089 3088 3085 3085 3083 3080 3079 3076 3073 3070 3067 3063 3060 3056 3053 3049 3045 3041 3037 3033 3028 3025 3020 3016 3012 3007 3003 3000 2996 2992 2988 2984 2980 2976 2972 2969 2965 2961 2957 2953 2950 2946 2943 2940 2937 2934 2930 2927 2925 2924 2923 2921 2920 2919 2919 2918 2918 2917 2916 2915
3141 3138 3136 3135 3133 3132 3131 3129 3127 3126 3124 3123 3122 3121 3120 3119 3118 3118 3117 3115 3117 3114 3102 3094 3090 3087 3087 3085 3082 3082 3080 3077 3075 3072 3069 3066 3063 3060 3056 3052 3049 3044 3040 3036 3032 3028 3024 3020 3016 3012 3008 3004 3000 2995 2992 2988 2984 2980 2976 2972 2968 2965 2961 2957 2952 2949 2945 2941 2938 2935 2932 2929 2926 2923 2921 2919 2917 2916 2915 2914 2914 2913 2912 2912 2911 2910
3140 3136 3133 3133 3132 3131 3130 3128 3126 3124 3123 3121 3120 3120 3120 3119 3117 3117 3116 3114 3114 3112 3102 3093 3089 3085 3083 3081 3079 3078 3076 3073 3070 3068 3065 3062 3059 3055 3051 3047 3044 3039 3035 3031 3026 3022 3018 3014 3010 3006 3002 2999 2995 2991 2987 2983 2979 2975 2971 2967 2964 2960 2956 2952 2948 2944 2940 2937 2933 2930 2927 2924 2921 2919 2916 2914 2912 2911 2910 2909 2908 2907 2907 2906 2906 2905
3139 3136 3132 3131 3130 3129 3128 3126 3124 3122 3121 3120 3119 3119 3118 3117 3116 3116 3115 3113 3111 3110 3104 3095 3088 3082 3078 3077 3077 3075 3073 3070 3067 3063 3061 3058 3055 3051 3047 3043 3039 3034 3030 3025 3021 3016 3012 3008 3005 3000 2996 2993 2989 2985 2982 2978 2974 2970 2966 2962 2959 2955 2951 2947 2943 2940 2936 2932 2929 2925 2922 2919 2917 2914 2912 2909 2907 2906 2905 2904 2903 2902 2901 2901 2900 2899
3138 3136 3132 3129 3129 3128 3125 3124 3123 3120 3120 3119 3117 3117 3116 3115 3115 3113 3112 3111 3109 3109 3106 3100 3088 3075 3072 3076 3076 3073 3071 3069 3065 3060 3057 3054 3051 3047 3044 3039 3034 3030 3025 3021 3017 3012 3008 3003 2999 2995 2991 2987 2983 2979 2976 2972 2968 2964 2961 2957 2953 2950 2946 2943 2939 2935 2931 2928 2924 2921 2917 2914 2911 2909 2907 2905 2903 2900 2899 2898 2897 2897 2896 2895 2894 2894
3135 3134 3131 3128 3127 3125 3123 3122 3120 3119 3118 3116 3116 3115 3114 3114 3113 3112 3110 3106 3106 3105 3102 3101 3088 3068 3067 3076 3075 3072 3071 3067 3064 3059 3053 3050 3046 3042 3039 3035 3030 3025 3020 3016 3012 3008 3003 2998 2994 2990 2986 2981 2977 2973 2970 2966 2962 2958 2955 2952 2948 2944 2941 2937 2933 2930 2926 2923 2919 2916 2912 2909 2906 2904 2902 2900 2897 2895 2894 2892 2892 2891 2890 2889 2889 2888
3134 3132 3128 3125 3125 3124 3121 3120 3118 3117 3116 3115 3114 3113 3112 3112 3110 3110 3108 3102 3103 3101 3096 3099 3089 3065 3064 3075 3072 3070 3068 3064 3062 3057 3050 3045 3042 3038 3034 3029 3025 3020 3015 3011 3007 3002 2998 2993 2989 2985 2980 2976 2972 2968 2964 2960 2956 2952 2949 2946 2942 2939 2935 2932 2928 2924 2921 2917 2914 2911 2907 2904 2901 2898 2897 2895 2892 2890 2888 2887 2886 2885 2884 2884 2883 2883
3133 3130 3126 3122 3121 3121 3119 3118 3117 3115 3115 3114 3112 3111 3110 3109 3107 3107 3105 3101 3101 3097 3093 3098 3084 3059 3061 3073 3070 3067 3065 3061 3059 3055 3048 3042 3037 3033 3029 3024 3020 3015 3010 3006 3001 2997 2992 2987 2983 2979 2975 2971 2966 2962 2958 2953 2949 2945 2942 2940 2936 2933 2930 2926 2922 2919 2915 2912 2908 2905 2902 2899 2896 2893 2891 2889 2887 2885 2883 2881 2880 2879 2879 2878 2877 2877
3131 3129 3126 3122 3119 3117 3116 3116 3115 3114 3114 3112 3110 3109 3107 3106 3105 3104 3102 3100 3097 3090 3090 3092 3073 3053 3061 3070 3066 3064 3061 3056 3054 3051 3046 3040 3034 3029 3025 3019 3015 3010 3005 3001 2995 2991 2987 2981 2977 2973 2969 2965 2960 2956 2952 2947 2943 2939 2936 2933 2930 2927 2924 2920 2916 2913 2909 2906 2903 2900 2897 2894 2891 2888 2886 2884 2882 2880 2878 2876 2875 2874 2873 2872 2871 2871
3129 3128 3126 3124 3122 3118 3116 3114 3113 3113 3112 3109 3108 3107 3105 3104 3104 3101 3100 3098 3092 3084 3084 3083 3064 3051 3059 3065 3061 3060 3057 3051 3048 3044 3041 3036 3030 3026 3021 3015 3010 3006 3000 2996 2990 2986 2982 2977 2973 2968 2964 2959 2955 2950 2946 2942 2938 2934 2930 2927 2924 2921 2917 2914 2910 2907 2904 2901 2898 2895 2892 2889 2886 2883 2881 2879 2877 2875 2873 2871 2869 2868 2868 2867 2866 2865
3127 3125 3124 3123 3120 3118 3115 3113 3112 3111 3109 3106 3104 3104 3103 3102 3100 3099 3097 3092 3087 3082 3076 3072 3065 3055 3053 3057 3056 3054 3050 3046 3042 3038 3034 3029 3024 3020 3015 3010 3006 3002 2997 2992 2987 2982 2978 2973 2969 2964 2959 2955 2950 2946 2941 2936 2933 2929 2925 2921 2918 2914 2911 2907 2904 2900 2898 2895 2892 2889 2886 2883 2880 2878 2876 2874 2872 2870 2868 2866 2864 2863 2862 2861 2860 2860
3124 3122 3121 3119 3116 3115 3113 3111 3110 3108 3105 3102 3100 3100 3100 3099 3096 3095 3092 3084 3083 3082 3070 3064 3068 3061 3051 3052 3052 3048 3045 3041 3036 3033 3029 3023 3019 3015 3010 3006 3001 2996 2992 2987 2982 2978 2973 2967 2963 2958 2954 2950 2945 2941 2936 2931 2927 2923 2919 2915 2912 2908 2904 2901 2898 2894 2892 2890 2887 2884 2881 2878 2875 2872 2871 2869 2867 2865 2863 2861 2859 2858 2857 2856 2855 2854
3122 3119 3118 3116 3113 3112 3111 3109 3107 3106 3102 3099 3098 3097 3096 3095 3092 3089 3086 3082 3082 3079 3068 3062 3065 3060 3053 3052 3050 3046 3044 3039 3034 3030 3026 3021 3017 3012 3006 3001 2995 2990 2985 2981 2976 2972 2967 2962 2957 2952 2948 2944 2939 2934 2930 2926 2921 2917 2913 2909 2905 2901 2898 2895 2892 2889 2886 2884 2881 2879 2876 2872 2869 2867 2865 2863 2862 2860 2858 2856 2854 2853 2852 2851 2850 2849
3120 3117 3115 3113 3110 3108 3108 3106 3103 3102 3099 3096 3095 3094 3092 3090 3088 3085 3083 3081 3078 3073 3067 3063 3059 3055 3054 3052 3047 3045 3043 3037 3032 3028 3023 3018 3014 3009 3002 2996 2990 2985 2980 2976 2971 2967 2962 2957 2952 2948 2943 2938 2933 2928 2924 2919 2915 2911 2907 2903 2899 2895 2892 2889 2885 2883 2881 2878 2876 2873 2870 2867 2864 2862 2860 2858 2857 2855 2853 2851 2850 2848 2847 2846 2846 2845
3118 3115 3113 3111 3107 3104 3104 3103 3100 3098 3096 3093 3092 3092 3089 3087 3085 3083 3081 3079 3076 3070 3066 3063 3056 3051 3052 3050 3045 3042 3039 3034 3029 3025 3019 3014 3009 3004 2998 2992 2986 2981 2976 2971 2967 2961 2956 2951 2946 2942 2937 2932 2928 2923 2918 2914 2909 2906 2902 2898 2894 2889 2886 2883 2879 2877 2875 2873 2870 2868 2864 2862 2859 2857 2855 2853 2851 2850 2849 2847 2845 2844 2843 2842 2841 2840
3116 3113 3111 3110 3105 3100 3100 3100 3098 3096 3093 3090 3089 3089 3087 3085 3083 3081 3080 3077 3074 3069 3064 3060 3054 3049 3048 3046 3041 3038 3035 3030 3025 3020 3015 3010 3005 2999 2994 2988 2983 2978 2972 2967 2962 2956 2951 2946 2941 2936 2932 2927 2922 2918 2913 2908 2904 2900 2897 2892 2888 2884 2880 2877 2874 2871 2869 2867 2864 2862 2859 2856 2854 2851 2850 2848 2846 2845 2844 2842 2841 2839 2838 2837 2836 2835
3114 3111 3109 3109 3104 3098 3098 3098 3096 3093 3089 3088 3088 3087 3085 3083 3081 3079 3078 3076 3073 3069 3063 3058 3053 3048 3046 3043 3037 3032 3028 3024 3019 3015 3011 3006 3001 2995 2989 2984 2979 2974 2969 2963 2957 2952 2947 2941 2936 2932 2927 2923 2918 2913 2908 2904 2899 2895 2891 2887 2883 2879 2875 2872 2868 2865 2863 2861 2858 2856 2854 2851 2848 2846 2845 2843 2841 2840 2839 2838 2837 2835 2834 2833 2832 2831
3111 3109 3108 3107 3103 3097 3096 3096 3094 3090 3087 3086 3086 3085 3083 3081 3078 3075 3074 3073 3071 3068 3062 3056 3051 3049 3046 3042 3035 3028 3023 3019 3015 3012 3009 3005 2998 2991 2985 2981 2975 2970 2965 2959 2954 2948 2943 2937 2932 2928 2923 2918 2913 2908 2904 2899 2894 2889 2885 2881 2877 2873 2870 2866 2863 2860 2857 2854 2853 2850 2848 2845 2843 2841 2840 2838 2837 2835 2834 2833 2832 2831 2829 2828 2828 2827
3109 3108 3106 3105 3102 3097 3095 3095 3093 3089 3087 3086 3084 3083 3081 3078 3075 3071 3069 3070 3070 3065 3059 3054 3051 3049 3045 3040 3034 3027 3020 3015 3011 3008 3006 3002 2995 2988 2982 2977 2972 2966 2960 2954 2949 2944 2938 2933 2927 2922 2918 2913 2908 2903 2898 2893 2888 2884 2879 2875 2871 2868 2864 2861 2857 2854 2851 2849 2847 2844 2842 2840 2838 2836 2835 2833 2832 2831 2830 2828 2827 2826 2825 2824 2823 2823
3108 3107 3105 3103 3100 3097 3095 3096 3093 3088 3085 3084 3082 3081 3079 3076 3073 3068 3063 3065 3068 3062 3056 3053 3050 3047 3042 3035 3029 3023 3016 3009 3004 3003 3001 2996 2990 2985 2979 2973 2967 2961 2955 2950 2945 2939 2934 2929 2923 2917 2912 2908 2903 2898 2892 2887 2882 2877 2873 2870 2866 2862 2859 2855 2852 2848 2845 2843 2841 2838 2836 2834 2833 2831 2829 2828 2827 2826 2825 2824 2823 2822 2821 2820 2819 2819
3107 3105 3103 3102 3099 3097 3095 3094 3090 3085 3083 3082 3081 3080 3078 3075 3073 3068 3059 3058 3060 3058 3054 3051 3046 3040 3035 3029 3023 3017 3010 3001 2995 2995 2995 2990 2984 2980 2975 2969 2964 2958 2953 2948 2942 2937 2932 2925 2919 2913 2907 2902 2898 2892 2886 2881 2876 2872 2868 2864 2860 2856 2853 2850 2846 2843 2840 2837 2835 2832 2830 2829 2827 2826 2824 2823 2822 2821 2820 2819 2818 2817 2817 2816 2816 2814
3105 3104 3102 3101 3098 3096 3094 3092 3088 3084 3083 3083 3081 3079 3078 3074 3072 3068 3059 3053 3054 3054 3052 3047 3040 3033 3028 3022 3016 3011 3004 2995 2986 2984 2987 2984 2979 2974 2969 2965 2960 2955 2950 2944 2938 2932 2926 2919 2913 2907 2901 2896 2892 2887 2881 2876 2870 2866 2862 2858 2854 2851 2848 2844 2841 2837 2834 2831 2828 2826 2825 2824 2822 2821 2819 2818 2817 2817 2816 2815 2814 2813 2812 2812 2811 2810
3104 3102 3100 3099 3097 3095 3094 3093 3090 3086 3084 3083 3081 3078 3075 3071 3068 3064 3057 3052 3052 3051 3047 3041 3035 3029 3024 3018 3012 3006 3000 2991 2981 2977 2978 2976 2971 2968 2963 2958 2954 2950 2945 2940 2933 2925 2919 2912 2907 2901 2896 2891 2886 2881 2876 2870 2864 2860 2856 2852 2848 2845 2842 2838 2834 2831 2828 2825 2822 2820 2820 2819 2817 2816 2814 2813 2812 2812 2811 2810 2809 2808 2808 2807 2807 2806
3102 3100 3098 3097 3095 3094 3093 3091 3090 3087 3085 3083 3080 3077 3073 3069 3066 3062 3056 3050 3048 3046 3042 3036 3030 3025 3020 3014 3009 3003 2998 2990 2980 2974 2974 2971 2966 2964 2960 2954 2949 2944 2938 2932 2926 2919 2913 2907 2901 2895 2889 2884 2879 2875 2870 2864 2859 2854 2850 2846 2842 2839 2836 2832 2828 2825 2822 2818 2816 2815 2814 2813 2812 2811 2810 2808 2807 2807 2806 2806 2805 2804 2804 2803 2803 2802
3100 3098 3097 3095 3094 3093 3092 3089 3087 3086 3085 3083 3079 3077 3073 3068 3064 3062 3057 3049 3044 3040 3036 3032 3026 3021 3017 3012 3005 2999 2995 2990 2982 2975 2972 2968 2963 2958 2955 2950 2944 2938 2931 2925 2919 2912 2906 2900 2895 2890 2884 2879 2873 2868 2863 2858 2853 2848 2843 2839 2836 2833 2829 2825 2822 2819 2816 2813 2811 2810 2809 2808 2807 2806 2805 2804 2803 2802 2802 2801 2800 2800 2799 2799 2798 2798
3099 3097 3096 3095 3093 3092 3091 3088 3086 3084 3083 3082 3078 3076 3073 3068 3063 3060 3054 3048 3043 3037 3032 3028 3023 3018 3013 3008 3002 2996 2990 2986 2981 2975 2969 2964 2958 2952 2947 2941 2935 2929 2924 2918 2912 2906 2899 2893 2888 2884 2879 2873 2867 2861 2856 2850 2846 2841 2837 2833 2830 2826 2822 2819 2816 2813 2810 2807 2805 2804 2803 2803 2802 2801 2800 2799 2798 2798 2797 2797 2796 2796 2795 2795 2794 2794
3099 3097 3096 3095 3093 3092 3090 3088 3086 3084 3082 3080 3076 3072 3071 3069 3064 3057 3050 3044 3040 3035 3028 3023 3018 3014 3009 3003 2998 2992 2986 2981 2976 2970 2964 2958 2952 2946 2939 2933 2927 2921 2916 2910 2905 2900 2893 2886 2881 2877 2872 2867 2860 2854 2849 2843 2838 2834 2830 2826 2823 2819 2816 2813 2810 2807 2804 2801 2799 2798 2798 2797 2796 2796 2795 2794 2794 2793 2793 2792 2792 2792 2791 2790 2790 2790
3099 3097 3096 3095 3093 3092 3090 3089 3088 3085 3082 3080 3077 3072 3069 3067 3062 3055 3047 3040 3035 3031 3025 3018 3013 3009 3005 2999 2993 2987 2981 2975 2969 2963 2957 2951 2945 2939 2932 2927 2921 2915 2909 2904 2898 2893 2887 2880 2874 2869 2865 2860 2853 2847 2842 2836 2831 2827 2823 2819 2816 2813 2810 2807 2804 2800 2798 2795 2793 2792 2792 2791 2791 2791 2790 2790 2790 2789 2789 2789 2788 2788 2787 2786 2786 2786
3099 3097 3096 3095 3094 3093 3090 3088 3086 3083 3080 3079 3077 3073 3068 3063 3059 3053 3045 3037 3031 3026 3022 3015 3009 3005 3001 2995 2988 2981 2975 2969 2963 2957 2951 2944 2938 2932 2927 2921 2916 2910 2904 2898 2893 2887 2880 2873 2867 2861 2856 2852 2847 2840 2835 2829 2823 2819 2815 2812 2809 2805 2803 2800 2797 2794 2791 2789 2787 2786 2785 2785 2785 2785 2785 2785 2785 2785 2785 2785 2784 2784 2783 2783 2782 2782
3098 3097 3095 3094 3092 3090 3088 3086 3083 3080 3077 3075 3074 3069 3064 3058 3052 3046 3040 3034 3028 3023 3019 3014 3007 3001 2995 2990 2983 2976 2970 2963 2957 2951 2945 2938 2932 2927 2922 2916 2911 2905 2899 2892 2886 2880 2873 2866 2860 2854 2848 2844 2840 2834 2827 2822 2817 2812 2808 2805 2802 2799 2796 2793 2790 2788 2785 2783 2781 2781 2780 2779 2780 2780 2781 2781 2781 2781 2781 2781 2781 2780 2780 2779 2779 2778
3097 3095 3093 3092 3090 3086 3083 3081 3079 3075 3072 3069 3066 3062 3057 3052 3047 3041 3035 3029 3024 3018 3014 3009 3002 2996 2990 2984 2978 2971 2965 2959 2952 2946 2940 2934 2928 2922 2917 2911 2905 2899 2893 2887 2880 2873 2866 2859 2853 2847 2841 2836 2832 2827 2821 2816 2811 2806 2802 2799 2796 2792 2789 2787 2784 2781 2779 2777 2776 2775 2774 2774 2774 2775 2776 2776 2776 2777 2777 2777 2777 2777 2776 2776 2775 2775
3095 3093 3090 3088 3086 3083 3080 3077 3073 3070 3068 3066 3061 3055 3049 3044 3039 3034 3029 3023 3018 3013 3007 3002 2997 2991 2984 2979 2973 2966 2960 2955 2949 2943 2936 2931 2925 2918 2913 2907 2900 2894 2888 2881 2875 2867 2860 2853 2846 2840 2834 2829 2825 2820 2815 2810 2805 2801 2797 2793 2789 2786 2783 2780 2778 2775 2772 2771 2770 2769 2769 2769 2769 2771 2772 2772 2772 2773 2773 2773 2773 2773 2773 2773 2772 2772
3093 3091 3088 3084 3081 3079 3076 3072 3066 3060 3058 3058 3055 3049 3043 3037 3030 3025 3021 3016 3011 3006 3000 2995 2991 2986 2980 2975 2969 2963 2956 2951 2946 2939 2932 2926 2920 2914 2908 2902 2896 2889 2882 2875 2868 2861 2853 2846 2840 2834 2828 2824 2819 2814 2808 2803 2800 2796 2792 2788 2784 2780 2777 2774 2771 2769 2767 2765 2765 2764 2763 2764 2765 2766 2767 2768 2768 2769 2769 2770 2770 2770 2770 2770 2770 2769
3091 3088 3086 3081 3076 3073 3070 3067 3062 3054 3049 3047 3045 3041 3036 3032 3025 3019 3014 3009 3004 3000 2994 2988 2984 2981 2977 2972 2966 2959 2952 2946 2941 2935 2928 2921 2914 2909 2903 2897 2890 2883 2876 2868 2860 2853 2847 2841 2835 2829 2823 2818 2813 2808 2802 2798 2794 2791 2787 2782 2778 2774 2771 2768 2765 2763 2761 2760 2760 2759 2759 2759 2760 2761 2763 2764 2765 2765 2766 2766 2766 2766 2766 2767 2767 2767
3090 3087 3084 3080 3076 3072 3069 3067 3063 3056 3049 3044 3041 3037 3032 3027 3021 3015 3009 3005 3000 2995 2990 2984 2979 2974 2970 2967 2962 2957 2949 2942 2936 2930 2922 2916 2911 2905 2898 2891 2884 2876 2868 2860 2853 2846 2840 2835 2829 2823 2817 2812 2807 2801 2796 2792 2789 2785 2781 2777 2773 2769 2766 2762 2759 2757 2756 2755 2754 2754 2754 2754 2755 2757 2758 2760 2761 2762 2762 2763 2763 2763 2763 2764 2764 2764